DW6885 Weather Reports


Display with metric or nautical units.
time (UTC)temp
F
wind
direction
speed
MPH
gust
MPH
rain 1hr
in
rain 24hr
in
rain mn
in
humidity
%
barometer
mb
20160206070906 17 167 0.0 1.0 0.00 0.00 0.00 85 1024.5
20160206070515 18 167 0.0 5.0 0.00 0.00 0.00 84 1024.5
20160206065518 19 169 1.0 5.0 0.00 0.00 0.00 83 1024.4
20160206065307 18 305 0.0 1.0 0.00 0.00 0.00 83 1024.3
20160206063906 19 305 0.0 2.0 0.00 0.00 0.00 80 1024.3
20160206063517 20 305 1.0 3.0 0.00 0.00 0.00 81 1024.2
20160206062206 20 273 0.0 3.0 0.00 0.00 0.00 80 1024.2
20160206060707 20 27 0.0 5.0 0.00 0.00 0.00 81 1023.9
20160206060518 20 26 1.0 3.0 0.00 0.00 0.00 81 1023.9
20160206055518 20 120 1.0 3.0 0.00 0.00 0.00 80 1023.9
20160206055115 20 113 1.0 3.0 0.00 0.00 0.00 79 1023.9
20160206054518 20 328 1.0 6.0 0.00 0.00 0.00 81 1023.9
20160206053708 19 260 2.0 5.0 0.00 0.00 0.00 83 1024.1
20160206052517 19 188 0.0 2.0 0.00 0.00 0.00 82 1024.2
20160206052207 19 184 0.0 2.0 0.00 0.00 0.00 82 1024.2
20160206050518 20 194 0.0 3.0 0.00 0.00 0.00 82 1024.0
20160206050507 20 194 0.0 4.0 0.00 0.00 0.00 82 1024.0
20160206045006 20 194 1.0 6.0 0.00 0.00 0.00 79 1023.8
20160206043515 21 41 1.0 3.0 0.00 0.00 0.00 78 1023.7
20160206043409 20 355 1.0 4.0 0.00 0.00 0.00 78 1023.7
20160206042512 21 335 0.0 6.0 0.00 0.00 0.00 78 1023.5
20160206042006 20 294 1.0 6.0 0.00 0.00 0.00 77 1023.5
20160206041515 21 51 1.0 5.0 0.00 0.00 0.00 77 1023.4
20160206040516 21 352 1.0 6.0 0.00 0.00 0.00 77 1023.2
20160206040407 21 80 1.0 6.0 0.00 0.00 0.00 77 1023.3
20160206035515 21 45 3.0 9.0 0.00 0.00 0.00 77 1023.3
20160206034806 21 355 1.0 8.0 0.00 0.00 0.00 77 1023.2
20160206034515 21 279 1.0 8.0 0.00 0.00 0.00 77 1023.2
20160206033307 20 28 1.0 4.0 0.00 0.00 0.00 78 1023.1
20160206031707 20 355 0.0 5.0 0.00 0.00 0.00 78 1023.0
20160206031511 21 355 1.0 7.0 0.00 0.00 0.00 78 1023.1
20160206030208 20 226 1.0 4.0 0.00 0.00 0.00 80 1023.0
20160206024608 21 343 1.0 5.0 0.00 0.00 0.00 77 1022.8
20160206023516 22 47 1.0 3.0 0.00 0.00 0.00 74 1022.6
20160206023124 22 266 1.0 4.0 0.00 0.00 0.00 74 1022.6
20160206022515 22 337 2.0 5.0 0.00 0.00 0.00 74 1022.4
20160206021514 23 26 3.0 10.0 0.00 0.00 0.00 74 1022.2
20160206020515 23 2 1.0 7.0 0.00 0.00 0.00 74 1022.0
20160206020006 22 180 3.0 6.0 0.00 0.00 0.00 74 1022.0
20160206014507 22 86 1.0 6.0 0.00 0.00 0.00 73 1021.9
20160206013512 23 190 1.0 9.0 0.00 0.00 0.00 72 1021.8
20160206012907 23 49 2.0 9.0 0.00 0.00 0.00 73 1021.7
20160206011409 23 38 2.0 7.0 0.00 0.00 0.00 73 1021.3
20160206005807 23 50 2.0 13.0 0.00 0.00 0.00 74 1021.0
20160206005515 23 347 2.0 12.0 0.00 0.00 0.00 75 1021.0
20160206004609 23 263 2.0 13.0 0.00 0.00 0.00 75 1020.6
20160206002806 23 258 2.0 8.0 0.00 0.00 0.00 77 1020.7
20160206002513 24 274 2.0 5.0 0.00 0.00 0.00 77 1020.6
20160206001514 24 72 1.0 10.0 0.00 0.00 0.00 78 1020.3
20160206001307 24 38 1.0 10.0 0.00 0.00 0.00 77 1020.3
20160206000512 24 301 5.0 10.0 0.00 0.00 0.00 77 1020.1
20160205235706 24 46 2.0 8.0 0.00 0.00 0.00 77 1020.0
20160205234107 24 333 2.0 9.0 0.00 0.00 0.00 78 1019.5
20160205232515 25 271 1.0 6.0 0.00 0.00 0.00 78 1019.1
20160205232507 24 266 0.0 6.0 0.00 0.00 0.00 79 1019.1
20160205231514 25 53 2.0 5.0 0.00 0.00 0.00 78 1018.9
20160205231006 25 342 1.0 5.0 0.00 0.00 0.00 78 1018.8
20160205225515 25 248 2.0 6.0 0.00 0.00 0.00 78 1018.5
20160205225407 25 9 2.0 9.0 0.00 0.00 0.00 78 1018.5
20160205224515 26 30 3.0 9.0 0.00 0.00 0.00 78 1018.3
20160205224006 0 0.0 0.0 0.00 0.00 0.00 1018.3
20160205222515 26 13 3.0 9.0 0.00 0.00 0.00 78 1017.9
20160205222508 26 13 2.0 9.0 0.00 0.00 0.00 78 1017.8
20160205220808 26 355 2.0 9.0 0.00 0.00 0.00 77 1017.4
20160205215307 27 151 3.0 8.0 0.00 0.00 0.00 75 1016.9
20160205214515 28 329 3.0 9.0 0.00 0.00 0.00 75 1016.8
20160205213706 28 119 2.0 9.0 0.00 0.00 0.00 77 1016.6
20160205213515 28 23 4.0 9.0 0.00 0.00 0.00 76 1016.5
20160205212515 29 0 2.0 6.0 0.00 0.00 0.00 78 1016.2
20160205212207 28 133 2.0 8.0 0.00 0.00 0.00 78 1016.2
20160205210608 28 346 2.0 8.0 0.00 0.00 0.00 80 1016.0
20160205205108 27 20 2.0 10.0 0.00 0.00 0.00 78 1015.8
20160205203512 28 333 2.0 9.0 0.00 0.00 0.00 80 1015.4
20160205202006 28 5 2.0 13.0 0.00 0.00 0.00 79 1015.3
20160205200512 28 318 3.0 10.0 0.00 0.00 0.00 82 1014.0
20160205200507 27 342 3.0 10.0 0.00 0.00 0.00 82 1014.0
20160205195514 28 308 5.0 13.0 0.00 0.00 0.00 82 1014.5
20160205194907 27 223 1.0 9.0 0.00 0.00 0.00 84 1014.1
20160205193512 28 346 2.0 10.0 0.00 0.00 0.00 85 1015.6
20160205193407 27 315 1.0 10.0 0.00 0.00 0.00 85 1015.6
20160205191806 27 15 2.0 11.0 0.00 0.00 0.00 85 1014.3
20160205191516 27 349 2.0 12.0 0.00 0.00 0.00 86 1014.2
20160205190407 27 355 3.0 8.0 0.00 0.00 0.00 88 1014.6
20160205184806 27 344 2.0 8.0 0.00 0.00 0.00 91 1013.7
20160205183515 27 86 3.0 9.0 0.00 0.00 0.00 91 1013.5
20160205183209 26 111 3.0 9.0 0.00 0.00 0.00 91 1013.6
20160205181706 26 229 1.0 8.0 0.00 0.00 0.00 92 1013.7
20160205181515 27 0 3.0 8.0 0.00 0.00 0.00 92 1013.9
20160205180514 27 319 2.0 9.0 0.00 0.00 0.00 93 1014.4
20160205180107 26 307 2.0 9.0 0.00 0.00 0.00 93 1014.4
20160205174706 26 351 2.0 7.0 0.00 0.00 0.00 95 1016.0
20160205174515 26 358 1.0 7.0 0.00 0.00 0.00 95 1016.1
20160205173515 26 4 3.0 6.0 0.00 0.00 0.00 95 1015.4
20160205173108 26 32 2.0 10.0 0.00 0.00 0.00 96 1015.3
20160205172514 26 319 2.0 8.0 0.00 0.00 0.00 96 1015.0
20160205171513 26 161 3.0 10.0 0.00 0.00 0.00 96 1014.4
20160205170006 26 5 1.0 7.0 0.00 0.00 0.00 96 1015.1
20160205165515 27 304 3.0 10.0 0.00 0.00 0.00 96 1014.4
20160205164515 27 307 1.0 8.0 0.00 0.00 0.00 96 1015.4
20160205164406 26 46 0.0 3.0 0.00 0.00 0.00 96 1015.4
20160205163514 27 11 2.0 8.0 0.00 0.00 0.00 96 1016.7
20160205162907 27 85 1.0 7.0 0.00 0.00 0.00 96 1016.9
20160205162515 27 1 2.0 7.0 0.00 0.00 0.00 96 1017.2
20160205161515 27 347 2.0 8.0 0.00 0.00 0.00 96 1017.4
20160205161306 27 201 1.0 6.0 0.00 0.00 0.00 96 1017.2
20160205160515 27 14 2.0 5.0 0.00 0.00 0.00 96 1017.5
20160205155807 27 310 1.0 7.0 0.00 0.00 0.00 96 1018.0
20160205155511 28 342 2.0 8.0 0.00 0.00 0.00 96 1018.1
20160205154515 28 79 2.0 8.0 0.00 0.00 0.00 96 1016.7
20160205154207 27 338 2.0 8.0 0.00 0.00 0.00 96 1016.7
20160205152806 28 61 1.0 14.0 0.00 0.00 0.00 96 1016.8
20160205151515 29 39 1.0 5.0 0.00 0.00 0.00 97 1017.4
20160205151206 28 38 1.0 6.0 0.00 0.00 0.00 97 1017.6
20160205145606 29 329 0.0 3.0 0.00 0.00 0.00 97 1017.3
20160205144107 29 193 1.0 7.0 0.00 0.00 0.00 96 1017.3
20160205143514 29 41 0.0 2.0 0.00 0.00 0.00 97 1017.2
20160205142516 29 258 0.0 5.0 0.00 0.00 0.00 97 1017.1
20160205142506 29 258 0.0 5.0 0.00 0.00 0.00 97 1017.1
20160205141515 29 9 1.0 3.0 0.00 0.00 0.00 96 1017.3
20160205141007 29 84 0.0 2.0 0.00 0.00 0.00 96 1017.3
20160205135511 30 77 1.0 5.0 0.00 0.00 0.00 96 1018.1
20160205135406 29 75 0.0 5.0 0.00 0.00 0.00 96 1018.2
20160205134515 30 107 1.0 3.0 0.00 0.00 0.00 97 1018.7
20160205134007 29 54 0.0 2.0 0.00 0.00 0.00 97 1018.7
20160205133515 30 340 0.0 2.0 0.00 0.00 0.00 97 1018.4
20160205132515 30 77 0.0 2.0 0.00 0.00 0.00 97 1018.5
20160205132405 29 77 0.0 2.0 0.00 0.00 0.00 97 1018.4
20160205130806 29 341 0.0 4.0 0.00 0.00 0.00 96 1017.5
20160205130515 30 5 2.0 3.0 0.00 0.00 0.00 96 1017.1
20160205125513 30 13 1.0 7.0 0.00 0.00 0.00 96 1017.4
20160205125406 29 13 1.0 6.0 0.00 0.01 0.00 96 1017.5
20160205124515 30 248 1.0 3.0 0.00 0.00 0.00 96 1017.7
20160205123706 29 346 1.0 6.0 0.00 0.01 0.00 96 1017.8
20160205123515 30 287 1.0 9.0 0.00 0.00 0.00 96 1017.7
20160205122515 30 3 0.0 3.0 0.00 0.00 0.00 96 1017.1
20160205122207 30 5 1.0 5.0 0.00 0.01 0.00 96 1017.4
20160205121515 30 35 1.0 9.0 0.00 0.01 0.00 96 1017.9
20160205120607 30 247 1.0 6.0 0.00 0.01 0.00 96 1018.1
20160205115108 30 58 1.0 4.0 0.00 0.01 0.00 96 1017.2
20160205114515 31 84 1.0 3.0 0.00 0.01 0.00 96 1017.1
20160205113506 30 284 1.0 6.0 0.00 0.01 0.00 95 1017.0
20160205112006 31 310 0.0 2.0 0.00 0.01 0.00 96 1016.3
20160205111515 31 317 0.0 2.0 0.00 0.01 0.00 95 1016.4
20160205110506 31 227 0.0 3.0 0.00 0.01 0.00 95 1016.4
20160205104906 31 29 0.0 2.0 0.00 0.01 0.00 95 1016.7
20160205103406 31 148 0.0 2.0 0.00 0.01 0.00 95 1016.7
20160205102511 31 13 1.0 2.0 0.00 0.01 0.00 94 1016.7
20160205101806 31 360 0.0 2.0 0.00 0.01 0.00 94 1016.9
20160205101515 32 5 0.0 2.0 0.00 0.01 0.00 94 1017.0
20160205100515 32 5 0.0 1.0 0.00 0.01 0.00 93 1016.9
20160205100405 31 5 0.0 2.0 0.00 0.01 0.00 93 1016.9
20160205095514 32 186 0.0 3.0 0.00 0.01 0.00 92 1017.1
20160205094806 32 209 0.0 4.0 0.00 0.01 0.00 91 1017.1
20160205094514 32 216 1.0 5.0 0.00 0.01 0.00 91 1017.1
20160205093209 33 5 0.0 4.0 0.00 0.01 0.00 87 1016.7
20160205091705 33 126 0.0 3.0 0.00 0.01 0.00 81 1016.8
20160205090515 34 121 0.0 3.0 0.00 0.01 0.00 78 1016.8
20160205090106 33 90 0.0 2.0 0.00 0.01 0.00 79 1016.9
20160205084515 34 327 1.0 2.0 0.00 0.01 0.00 80 1016.4
20160205084506 34 326 0.0 2.0 0.00 0.01 0.00 79 1016.4
20160205083514 34 327 1.0 3.0 0.00 0.01 0.00 79 1016.3
20160205082514 34 152 0.0 5.0 0.00 0.01 0.00 79 1016.3
20160205081514 33 292 0.0 1.0 0.00 0.01 0.00 82 1015.7
20160205080006 34 292 0.0 1.0 0.00 0.01 0.00 81 1016.3
20160205074406 34 292 0.0 2.0 0.00 0.01 0.00 80 1016.9
20160205072806 34 291 0.0 4.0 0.00 0.01 0.00 77 1017.2
20160205071514 35 57 1.0 3.0 0.00 0.01 0.00 76 1017.1
20160205071306 34 57 1.0 3.0 0.00 0.01 0.00 76 1017.0